Change the Weather History Date:

Saturday, March 29, 2014

  Actual Average (KNYG) Record (KNYG)
Temperature  
Mean Temperature 60 °F -  
Max Temperature 64 °F 58 °F 87 °F (1998)
Min Temperature 57 °F 39 °F 28 °F (2011)
Degree Days  
Heating Degree Days 4    
Growing Degree Days 10 (Base 50)    
Moisture  
Dew Point 61 °F    
Average Humidity 98    
Maximum Humidity 100    
Minimum Humidity 77    
Precipitation  
Precipitation 0.57 in - - ()
Sea Level Pressure  
Sea Level Pressure 29.86 in    
Wind  
Wind Speed 4 mph (SSE)    
Max Wind Speed 14 mph    
Max Gust Speed 22 mph    
Visibility 6 miles    
Events Fog , Rain    
Averages and records for this station are not official NWS values.
T = Trace of Precipitation, MM = Missing Value Source: NWS Daily Summary

Daily Weather History Graph

Daily Weather History Graph

Search for Another Location

Airport or City:

Trip Planner

Search our weather history database for the weather conditions in past years. The results will help you decide how hot, cold, wet, or windy it might be!

Date:

Astronomy

Mar. 29, 2014 Rise Set
Actual Time 6:59 AM EDT 7:30 PM EDT
Civil Twilight 6:32 AM EDT 7:56 PM EDT
Nautical Twilight 6:01 AM EDT 8:28 PM EDT
Astronomical Twilight 5:29 AM EDT 9:00 PM EDT
Moon 6:05 AM EDT (3/29) 6:33 PM EDT (3/29)
Length of Visible Light 13h 23m
Length of Day
12h 30m
Waning Crescent, 2% of the Moon is Illuminated
Mar 29
Waning Crescent
Mar 30
New
Apr 7
First Quarter
Apr 15
Full
Apr 22
Last Quarter

Hourly Weather History & Observations

Time (EDT) Temp. Dew Point Humidity Pressure Visibility Wind Dir Wind Speed Gust Speed Precip Events Conditions
12:15 AM 62.6 °F 55.4 °F 77% 30.09 in 10.0 mi South 5.8 mph - N/A   Overcast
12:35 AM 62.6 °F 55.4 °F 77% 30.09 in 10.0 mi South 3.5 mph - N/A   Overcast
12:55 AM 62.6 °F 55.4 °F 77% 30.10 in 10.0 mi SSW 3.5 mph - N/A   Overcast
1:15 AM 62.6 °F 55.4 °F 77% 30.09 in 10.0 mi South 4.6 mph - N/A   Overcast
1:35 AM 62.6 °F 55.4 °F 77% 30.09 in 10.0 mi South 5.8 mph - N/A   Overcast
1:55 AM 60.8 °F 57.2 °F 88% 30.09 in 10.0 mi South 5.8 mph - N/A   Light Drizzle
2:15 AM 60.8 °F 57.2 °F 88% 30.09 in 10.0 mi South 5.8 mph - N/A Rain Light Rain
2:35 AM 60.8 °F 57.2 °F 88% 30.09 in 10.0 mi South 3.5 mph - N/A Rain Light Rain
2:55 AM 60.8 °F 59.0 °F 94% 30.07 in 10.0 mi South 5.8 mph - N/A Rain Light Rain
3:15 AM 59.0 °F 59.0 °F 100% 30.06 in 10.0 mi SE 3.5 mph - N/A   Light Drizzle
3:35 AM 59.0 °F 59.0 °F 100% 30.06 in 10.0 mi SSE 3.5 mph - N/A Rain Light Rain
3:55 AM 59.0 °F 59.0 °F 100% 30.06 in 7.0 mi Calm Calm - N/A Rain Light Rain
4:15 AM 59.0 °F 59.0 °F 100% 30.05 in 5.0 mi Calm Calm - 0.01 in Rain Rain
4:35 AM 59.0 °F 59.0 °F 100% 30.05 in 5.0 mi Calm Calm - 0.02 in Rain Light Rain
4:55 AM 57.2 °F 57.2 °F 100% 30.05 in 2.0 mi SSE 3.5 mph - 0.02 in Rain Rain
5:15 AM 57.2 °F 57.2 °F 100% 30.05 in 1.0 mi SSE 5.8 mph - N/A Rain Light Rain
5:35 AM 59.0 °F 59.0 °F 100% 30.04 in 3.0 mi SSE 3.5 mph - 0.01 in Rain Light Rain
5:55 AM 59.0 °F 59.0 °F 100% 30.04 in 3.0 mi SE 3.5 mph - 0.01 in   Drizzle
6:15 AM 59.0 °F 59.0 °F 100% 30.05 in 1.5 mi Calm Calm - N/A   Light Drizzle
6:35 AM 59.0 °F 59.0 °F 100% 30.04 in 0.5 mi East 3.5 mph - N/A Rain Rain
6:55 AM 57.2 °F 57.2 °F 100% 30.03 in 0.2 mi ESE 3.5 mph - 0.01 in Rain Light Rain
7:15 AM 57.2 °F 57.2 °F 100% 30.03 in 0.5 mi Calm Calm - N/A Rain Light Rain
7:35 AM 57.2 °F 57.2 °F 100% 30.03 in 0.5 mi Calm Calm - N/A Rain Light Rain
7:55 AM 59.0 °F 59.0 °F 100% 30.02 in 0.8 mi ESE 3.5 mph - N/A Rain Light Rain
8:15 AM 57.2 °F 57.2 °F 100% 30.02 in 0.2 mi Calm Calm - N/A Rain Light Rain
8:35 AM 59.0 °F 59.0 °F 100% 30.01 in 0.2 mi Calm Calm - N/A Fog Fog
8:55 AM 59.0 °F 59.0 °F 100% 30.02 in 0.2 mi Calm Calm - N/A Fog Fog
9:15 AM 59.0 °F 59.0 °F 100% 30.01 in 0.2 mi Calm Calm - N/A Rain Light Rain
9:35 AM 59.0 °F 59.0 °F 100% 30.01 in 0.5 mi Calm Calm - N/A Rain Heavy Rain
9:55 AM 59.0 °F 59.0 °F 100% 30.01 in 0.8 mi Calm Calm - 0.02 in Rain Rain
10:15 AM 60.8 °F 60.8 °F 100% 30.00 in 2.5 mi Calm Calm - 0.01 in   Heavy Drizzle
10:37 AM 60.8 °F 60.8 °F 100% 29.99 in 2.5 mi Calm Calm - 0.02 in   Drizzle
10:55 AM 60.8 °F 60.8 °F 100% 29.98 in 3.0 mi Calm Calm - 0.03 in Rain Rain
11:15 AM 60.8 °F 60.8 °F 100% 29.97 in 4.0 mi Calm Calm - N/A Rain Light Rain
11:35 AM 60.8 °F 60.8 °F 100% 29.96 in 2.0 mi Calm Calm - 0.01 in Rain Rain
11:55 AM 60.8 °F 60.8 °F 100% 29.95 in 2.0 mi Calm Calm - 0.03 in Rain Light Rain
12:15 PM 60.8 °F 60.8 °F 100% 29.93 in 4.0 mi NE 3.5 mph - N/A Rain Light Rain
12:35 PM 60.8 °F 60.8 °F 100% 29.92 in 4.0 mi East 3.5 mph - N/A   Light Drizzle
12:55 PM 60.8 °F 60.8 °F 100% 29.91 in 2.0 mi East 3.5 mph - 0.02 in Rain Light Rain
1:15 PM 60.8 °F 60.8 °F 100% 29.89 in 3.0 mi ENE 3.5 mph - 0.02 in Rain Rain
1:35 PM 62.6 °F 62.6 °F 100% 29.87 in 5.0 mi ENE 3.5 mph - 0.04 in Rain Light Rain
1:55 PM 62.6 °F 62.6 °F 100% 29.85 in 2.5 mi Calm Calm - 0.08 in Rain Rain
2:16 PM 62.6 °F 62.6 °F 100% 29.82 in 2.5 mi ENE 3.5 mph - 0.02 in Rain Rain
2:35 PM 62.6 °F 62.6 °F 100% 29.81 in 7.0 mi Calm Calm - 0.03 in Rain Rain
2:55 PM 60.8 °F 60.8 °F 100% 29.80 in 2.0 mi Calm Calm - 0.06 in Rain Rain
3:15 PM 62.6 °F 62.6 °F 100% 29.78 in 2.5 mi NNW 3.5 mph - 0.07 in Rain Rain
3:35 PM 62.6 °F 62.6 °F 100% 29.77 in 3.0 mi Calm Calm - 0.10 in Rain Heavy Rain
3:55 PM 62.6 °F 62.6 °F 100% 29.76 in 5.0 mi Calm Calm - 0.10 in Rain Light Rain
4:15 PM 62.6 °F 62.6 °F 100% 29.74 in 7.0 mi Calm Calm - N/A Rain Light Rain
4:35 PM 62.6 °F 62.6 °F 100% 29.73 in 5.0 mi Calm Calm - 0.01 in Rain Rain
4:55 PM 62.6 °F 62.6 °F 100% 29.69 in 4.0 mi ESE 3.5 mph - 0.02 in Rain Rain
5:15 PM 64.4 °F 64.4 °F 100% 29.68 in 10.0 mi SE 6.9 mph - 0.01 in Rain Rain
5:36 PM 64.4 °F 64.4 °F 100% 29.68 in 10.0 mi SSE 11.5 mph - 0.01 in   Overcast
5:55 PM 64.4 °F 64.4 °F 100% 29.67 in 10.0 mi SSE 6.9 mph - 0.01 in Rain Light Rain
6:15 PM 64.4 °F 64.4 °F 100% 29.65 in 10.0 mi SSE 6.9 mph - N/A   Light Drizzle
6:35 PM 64.4 °F 64.4 °F 100% 29.65 in 10.0 mi SE 5.8 mph - N/A Rain Light Rain
6:55 PM 64.4 °F 64.4 °F 100% 29.63 in 5.0 mi ESE 8.1 mph - 0.05 in Rain Rain
7:15 PM 62.6 °F 62.6 °F 100% 29.61 in 3.0 mi ESE 10.4 mph - 0.09 in Rain Heavy Rain
7:35 PM 62.6 °F 62.6 °F 100% 29.60 in 5.0 mi ESE 9.2 mph - 0.11 in Rain Rain
7:55 PM 62.6 °F 62.6 °F 100% 29.58 in 5.0 mi SE 13.8 mph 19.6 mph 0.11 in   Drizzle
8:15 PM 64.4 °F 64.4 °F 100% 29.58 in 7.0 mi SSE 13.8 mph 18.4 mph N/A   Drizzle
8:35 PM 64.4 °F 64.4 °F 100% 29.58 in 10.0 mi South 11.5 mph 21.9 mph N/A   Overcast
8:55 PM 64.4 °F 64.4 °F 100% 29.58 in 10.0 mi South 12.7 mph - N/A   Overcast
9:15 PM 64.4 °F 64.4 °F 100% 29.57 in 10.0 mi South 10.4 mph 16.1 mph N/A   Overcast
9:35 PM 64.4 °F 64.4 °F 100% 29.57 in 10.0 mi South 10.4 mph - N/A   Overcast
9:55 PM 64.4 °F 64.4 °F 100% 29.57 in 10.0 mi South 11.5 mph - N/A   Mostly Cloudy
10:15 PM 64.4 °F 64.4 °F 100% 29.57 in 10.0 mi South 8.1 mph - N/A   Mostly Cloudy
10:35 PM 64.4 °F 64.4 °F 100% 29.56 in 10.0 mi South 5.8 mph - N/A   Overcast
10:55 PM 64.4 °F 64.4 °F 100% 29.56 in 10.0 mi South 4.6 mph - N/A   Overcast
11:15 PM 62.6 °F 62.6 °F 100% 29.56 in 10.0 mi West 6.9 mph - N/A   Overcast
11:35 PM 60.8 °F 60.8 °F 100% 29.55 in 10.0 mi Calm Calm - N/A   Overcast
11:55 PM 57.2 °F 57.2 °F 100% 29.55 in 10.0 mi NW 5.8 mph - N/A   Overcast